Home > Weather > Stockholm > Past weeks

Flag for Sweden Weather for the Past 2 Weeks in Stockholm, Sweden

Now
43 °F

Fog.


Feels Like: 39 °F
Forecast: 42 / 63 °F
Wind: 6 mph from Southeast

Location: Stockholm Bromma Airport

Current Time: May 3, 2016 at 6:05:25 AM

Latest Report: May 3, 2016 at 5:20 AM


Visibility: 4 mi

Pressure: 30.07 "Hg

Humidity: 81%

Dew Point: 37 °F

Location of StockholmLocation

Historic Weather in Stockholm — Graph

°F

Stockholm Temperature Yesterday

Maximum temperature yesterday: 63 °F (at 4:20 PM)
Minimum temperature yesterday: 37 °F (at 5:20 AM)
Average temperature yesterday: 51 °F

High & Low Weather Summary for the Past Weeks

 TemperatureHumidityPressure
High63 °F (May 2, 4:20 PM)100% (Apr 22, 10:50 PM)30.33 "Hg (Apr 22, 10:50 PM)
Low28 °F (Apr 26, 3:20 AM)15% (May 2, 4:20 PM)29.47 "Hg (Apr 19, 2:50 AM)
Average43 °F70%29.89 "Hg
* Reported Apr 18 4:20 AM — May 3 4:20 AM, Stockholm, Weather by CustomWeather, © 2016

Note: Actual official high and low records may vary slightly from our data, if they occured in-between our weather recording intervals... More about our weather records

Advertising

Stockholm Weather History for the Previous 24 Hours

Scroll right to see more
 ConditionsComfort  
Time TempWeatherWind HumidityBarometerVisibility
4:20 AM
Tue, May 3
43 °FFog.3 mph76%30.09 "HgN/A
3:20 AM43 °FQuite cool.5 mph76%30.09 "HgN/A
2:20 AM41 °FQuite cool.3 mph76%30.09 "HgN/A
1:50 AM39 °FChilly.2 mph81%30.09 "HgN/A
1:20 AM41 °FQuite cool.3 mph70%30.12 "HgN/A
12:50 AM41 °FQuite cool.3 mph70%30.12 "HgN/A
12:20 AM43 °FQuite cool.2 mph66%30.12 "HgN/A
11:50 PM
Mon, May 2
45 °FQuite cool.3 mph66%30.12 "HgN/A
11:20 PM46 °FCool.3 mph57%30.12 "HgN/A
10:50 PM46 °FCool.2 mph57%30.12 "HgN/A
10:20 PM48 °FCool.6 mph54%30.15 "HgN/A
9:50 PM50 °FClear.6 mph47%30.15 "Hg10 mi
9:20 PM52 °FSunny.6 mph44%30.15 "Hg10 mi
8:50 PM54 °FSunny.6 mph38%30.15 "Hg10 mi
8:20 PM55 °FPassing clouds.8 mph36%30.15 "HgN/A
7:50 PM57 °FPassing clouds.8 mph33%30.12 "HgN/A
7:20 PM57 °FSunny.9 mph29%30.15 "Hg10 mi
6:50 PM59 °FSunny.9 mph27%30.15 "Hg10 mi
6:20 PM61 °FPassing clouds.8 mph22%30.15 "HgN/A
5:50 PM61 °FSunny.9 mph25%30.15 "Hg10 mi
5:20 PM61 °FPassing clouds.9 mph29%30.15 "HgN/A
4:50 PM61 °FPassing clouds.8 mph17%30.18 "HgN/A
4:20 PM63 °FPassing clouds.8 mph15%30.18 "HgN/A
3:50 PM61 °FPassing clouds.8 mph16%30.18 "HgN/A
3:20 PM61 °FPassing clouds.7 mph19%30.18 "HgN/A
2:50 PM61 °FPassing clouds.8 mph20%30.21 "HgN/A
2:20 PM61 °FPassing clouds.9 mph22%30.21 "HgN/A
1:50 PM61 °FPassing clouds.8 mph22%30.21 "HgN/A
1:20 PM59 °FPassing clouds.7 mph31%30.24 "HgN/A
12:50 PM59 °FPassing clouds.6 mph36%30.24 "HgN/A
12:20 PM57 °FPassing clouds.7 mph36%30.24 "HgN/A
11:50 AM57 °FPassing clouds.6 mph36%30.24 "HgN/A
11:20 AM55 °FSunny.8 mph36%30.27 "Hg10 mi
10:50 AM55 °FPassing clouds.7 mph33%30.27 "HgN/A
10:20 AM55 °FPassing clouds.6 mph38%30.27 "HgN/A
9:50 AM54 °FPassing clouds.6 mph38%30.27 "HgN/A
9:20 AM52 °FPassing clouds.5 mph50%30.27 "HgN/A
8:20 AM50 °FSunny.2 mph58%30.27 "Hg10 mi
7:20 AM46 °FPassing clouds.3 mph71%30.27 "HgN/A
6:50 AM43 °FSunny.No wind81%30.27 "Hg10 mi
6:20 AM39 °FSunny.No wind93%30.27 "Hg10 mi
Weather by CustomWeather, © 2016

See weather overviewHow to use our weather pages